#timestamp,LO_Frequency,Hit,StdDev 
1561406415.1,286047002.3,N
1561406435.8,286047000.2,N
1561406455.7,286047000.1,N
1561406475.5,286047000.4,N
1561406495.4,286047000.9,N
1561406515.2,286047000.5,N
1561406535.0,286047000.4,N
1561406535.9,286047000.4,N
1561406555.8,286047000.3,N
1561406575.6,286047000.2,N
1561406595.4,286047000.2,N
1561406615.3,286047000.0,N
1561406635.1,286047002.8,N
1561406655.9,286047002.5,N
1561406675.7,286047002.7,N
1561406695.5,286047002.8,N
1561406715.4,286047002.6,N
1561406735.2,286047003.8,Y
1561406755.0,286047004.1,P
1561406755.9,286047004.1,N
1561406775.8,286047001.5,N
1561406795.6,286047002.8,N
1561406815.5,286047000.7,N
1561406835.3,286046998.3,N
1561406855.1,286047000.5,N
1561406875.9,286047000.6,N
1561406895.7,286046998.6,N
1561406915.5,286046999.3,N
1561406935.4,286046998.9,N
1561406955.2,286046998.4,N
1561406975.1,286047001.0,N
1561406976.0,286047001.0,N
1561406995.8,286047000.6,N
1561407015.6,286047000.4,N
1561407035.5,286047002.6,N
1561407055.3,286046999.8,N
1561407075.1,286047002.8,N
1561407095.9,286047001.0,N
1561407115.7,286047000.8,N
1561407135.6,286047000.4,N
1561407155.4,286047000.4,N
1561407175.2,286046999.9,N
1561407195.1,286047002.6,N
1561407196.0,286047002.6,N
1561407215.8,286047002.6,N
1561407235.6,286047002.7,N
1561407255.5,286047002.8,N
1561407275.3,286047002.8,N
1561407295.2,286046999.7,N
1561407315.9,286047002.8,N
1561407335.7,286047000.0,N
1561407355.6,286047000.1,N
1561407375.4,286047000.5,N
1561407395.2,286047000.3,N
1561407415.1,286047002.4,N
1561407416.0,286047002.4,N
1561407435.8,286047000.1,N
1561407455.7,286047000.2,N
1561407475.5,286047002.7,N
1561407495.3,286046998.1,N
1561407515.2,286047000.3,N
1561407535.0,286047001.1,N
1561407535.9,286047001.1,N
1561407555.7,286047001.0,N
1561407575.6,286046998.2,N
1561407595.4,286047000.1,N
1561407615.3,286047000.1,N
1561407635.1,286046999.9,N
1561407636.0,286046999.9,N
1561407655.8,286047000.0,N
1561407675.7,286047000.2,N
1561407695.5,286047000.6,N
1561407715.3,286047000.9,N
1561407735.2,286047000.6,N
1561407755.0,286046999.8,N
1561407755.9,286046999.8,N
1561407775.8,286046999.9,N
1561407795.6,286046999.7,N
1561407815.4,286046999.8,N
1561407835.3,286047002.3,N
1561407855.1,286047001.6,N
1561407875.8,286047001.6,N
1561407895.7,286047003.5,Y
1561407915.5,286047004.2,P
1561407935.4,286047004.4,N
1561407955.2,286047004.2,N
1561407975.0,286047001.5,N
1561407975.9,286047001.5,N
1561407995.8,286047002.6,N
1561408015.6,286047001.5,N
1561408035.5,286047002.7,N
1561408055.3,286047002.4,N
1561408075.1,286047002.0,N
1561408095.9,286047004.0,Y
1561408115.7,286047000.3,P
1561408135.5,286046998.6,N
1561408155.4,286046998.9,N
1561408175.2,286046998.1,N
1561408195.1,286047000.6,N
1561408196.0,286047000.6,N
1561408215.8,286046998.6,N
1561408235.6,286047000.2,N
1561408255.5,286047000.5,N
1561408275.3,286047000.5,N
1561408295.1,286047002.8,N
1561408315.9,286047000.1,N
1561408335.7,286047000.2,N
1561408355.6,286046999.9,N
1561408375.4,286047001.0,N
1561408395.2,286047001.0,N
1561408415.1,286047000.3,N
1561408416.0,286047000.3,N
1561408435.8,286047000.9,N
1561408455.7,286047000.8,N
1561408475.5,286046998.6,N
1561408495.3,286046998.8,N
1561408515.2,286046998.8,N
1561408535.0,286046999.1,N
1561408535.9,286046999.1,N
1561408555.7,286046999.3,N
1561408575.6,286046998.8,N
1561408595.4,286046998.1,N
1561408615.3,286046997.4,N
1561408635.1,286046996.8,N
1561408655.8,286046994.9,Y
1561408675.7,286046997.2,P
1561408695.5,286046999.3,N
1561408715.4,286046996.6,P
1561408735.2,286046996.5,N
1561408755.0,286046996.9,N
1561408755.9,286046996.9,N
1561408775.8,286046997.1,N
1561408795.6,286046996.8,N
1561408815.5,286046999.2,N
1561408835.3,286046996.8,N
1561408855.1,286046995.0,Y
1561408875.9,286046996.8,P
1561408895.7,286046997.2,P
1561408915.5,286046996.5,P
1561408935.4,286046999.0,N
1561408955.2,286046999.9,N
1561408975.1,286046998.5,N
1561408976.0,286046998.5,N
1561408995.8,286047000.7,N
1561409015.6,286047001.0,N
1561409035.5,286047000.8,N
1561409055.3,286046998.9,N
1561409075.2,286046998.4,N
1561409095.9,286046998.3,N
1561409115.7,286046998.2,N
1561409135.6,286047000.8,N
1561409155.4,286046998.2,N
1561409175.2,286046998.6,N
1561409195.1,286047000.6,N
1561409196.0,286047000.6,N
1561409215.8,286047000.6,N
1561409235.7,286047000.0,N
1561409255.5,286047001.5,N
1561409275.3,286047001.2,N
1561409295.2,286047000.7,N
1561409315.0,286046998.1,N
1561409315.9,286046998.1,N
1561409335.8,286047001.0,N
1561409355.6,286047000.9,N
1561409375.4,286047000.8,N
1561409395.3,286046998.2,N
1561409415.1,286047000.8,N
1561409435.9,286047001.0,N
1561409455.7,286047000.4,N
1561409475.5,286046998.6,N
1561409495.4,286047001.0,N
1561409515.2,286047001.2,N
1561409535.0,286047000.1,N
1561409535.9,286047000.1,N
1561409555.8,286047000.7,N
1561409575.6,286047000.0,N
1561409595.5,286047000.7,N
1561409615.3,286047001.2,N
1561409635.1,286046998.1,N
1561409655.9,286047001.2,N
1561409675.7,286046998.2,N
1561409695.6,286047000.7,N
1561409715.4,286046999.9,N
1561409735.2,286047000.9,N
1561409755.1,286047002.4,N
1561409756.0,286047002.4,N
1561409775.8,286047000.9,N
1561409795.6,286047000.3,N
1561409815.5,286047000.8,N
1561409835.3,286047000.7,N
1561409855.2,286047000.6,N
1561409875.0,286047000.4,N
1561409875.9,286047000.4,N
1561409895.7,286047000.6,N
1561409915.6,286047000.4,N
1561409935.4,286046999.7,N
1561409955.3,286047000.4,N
1561409975.1,286047001.2,N
1561409995.8,286047000.1,N
